VOYAGER:1:PRINTED,ON:,1-OCT-01:11:44:10:V179054S32
START_TIME,STOP_TIME,SECTOR,SCAN_DIR,E44FLUX,E44UNC,E45FLUX,E45UNC,E37FLUX,E37UNC,P31FLUX,P31UNC
1979-02-23 00:00:11.850 ,1979-02-23 00:00:17.790 ,3,1,9.56,1.77,0.249,0.249,-1.00,-1.00,2.632E-02,4.327E-03
1979-02-23 00:00:18.230 ,1979-02-23 00:00:41.790 ,4,1,10.3,0.847,0.435,0.164,-1.00,-1.00,2.453E-02,2.192E-03
1979-02-23 00:00:42.220 ,1979-02-23 00:01:05.790 ,5,1,12.1,0.915,0.435,0.164,-1.00,-1.00,3.008E-02,2.472E-03
1979-02-23 00:01:06.220 ,1979-02-23 00:01:29.790 ,6,1,13.8,0.978,0.373,0.152,-1.00,-1.00,2.947E-02,2.445E-03
1979-02-23 00:01:30.220 ,1979-02-23 00:01:53.790 ,7,1,14.2,1.02,0.249,0.124,-1.00,-1.00,2.865E-02,2.368E-03
1979-02-23 00:01:54.220 ,1979-02-23 00:02:35.790 ,8,1,17.7,0.853,0.320,0.107,-1.00,-1.00,2.915E-02,1.836E-03
1979-02-23 00:02:35.850 ,1979-02-23 00:02:41.790 ,8,-1,9.89,1.80,0.000E+00,0.000E+00,-1.00,-1.00,3.343E-02,4.874E-03
1979-02-23 00:02:42.230 ,1979-02-23 00:03:05.790 ,7,-1,16.9,1.08,0.435,0.164,-1.00,-1.00,2.993E-02,2.511E-03
1979-02-23 00:03:06.230 ,1979-02-23 00:03:29.790 ,6,-1,12.8,0.940,0.559,0.186,-1.00,-1.00,2.703E-02,2.340E-03
1979-02-23 00:03:30.230 ,1979-02-23 00:03:53.790 ,5,-1,13.9,0.983,0.373,0.152,-1.00,-1.00,3.069E-02,2.494E-03
1979-02-23 00:03:54.230 ,1979-02-23 00:04:17.790 ,4,-1,9.45,0.831,0.497,0.176,-1.00,-1.00,2.541E-02,2.271E-03
1979-02-23 00:04:18.230 ,1979-02-23 00:04:41.790 ,3,-1,15.2,1.03,0.808,0.224,-1.00,-1.00,2.826E-02,2.353E-03
1979-02-23 00:04:42.230 ,1979-02-23 00:05:05.790 ,2,-1,15.2,1.03,0.435,0.164,-1.00,-1.00,2.930E-02,2.481E-03
1979-02-23 00:05:05.850 ,1979-02-23 00:05:30.230 ,1,-1,17.6,1.96,0.746,0.249,-1.00,-1.00,2.789E-02,3.982E-03
1979-02-23 00:05:30.230 ,1979-02-23 00:05:53.790 ,1,1,17.7,1.11,0.497,0.176,-1.00,-1.00,3.130E-02,2.519E-03
1979-02-23 00:05:54.230 ,1979-02-23 00:06:17.790 ,2,1,15.8,1.04,0.746,0.215,-1.00,-1.00,3.150E-02,2.530E-03
1979-02-23 00:06:18.230 ,1979-02-23 00:06:41.790 ,3,1,13.9,0.983,0.497,0.176,-1.00,-1.00,2.924E-02,2.394E-03
1979-02-23 00:06:42.230 ,1979-02-23 00:07:05.790 ,4,1,7.91,0.740,0.435,0.164,-1.00,-1.00,2.119E-02,2.037E-03
1979-02-23 00:07:06.230 ,1979-02-23 00:07:29.790 ,5,1,12.2,0.942,0.559,0.186,-1.00,-1.00,2.824E-02,2.436E-03
1979-02-23 00:07:30.230 ,1979-02-23 00:07:53.790 ,6,1,12.4,0.952,0.435,0.164,-1.00,-1.00,3.061E-02,2.449E-03
1979-02-23 00:07:54.230 ,1979-02-23 00:08:17.790 ,7,1,12.8,0.943,0.808,0.224,-1.00,-1.00,3.130E-02,2.519E-03
1979-02-23 00:08:18.230 ,1979-02-23 00:08:59.790 ,8,1,18.7,0.862,0.533,0.138,-1.00,-1.00,3.124E-02,1.904E-03
1979-02-23 00:08:59.850 ,1979-02-23 00:09:05.790 ,8,-1,15.2,2.23,0.746,0.431,-1.00,-1.00,2.205E-02,3.959E-03
1979-02-23 00:09:06.220 ,1979-02-23 00:09:29.790 ,7,-1,14.1,0.988,0.435,0.164,-1.00,-1.00,3.204E-02,2.598E-03
1979-02-23 00:09:30.220 ,1979-02-23 00:09:53.790 ,6,-1,15.3,1.03,0.373,0.152,-1.00,-1.00,2.642E-02,2.316E-03
1979-02-23 00:09:54.220 ,1979-02-23 00:10:17.790 ,5,-1,11.1,0.876,0.311,0.139,-1.00,-1.00,2.610E-02,2.259E-03
1979-02-23 00:10:18.220 ,1979-02-23 00:10:41.790 ,4,-1,9.92,0.830,0.332,0.166,-1.00,-1.00,2.904E-02,2.387E-03
1979-02-23 00:10:42.220 ,1979-02-23 00:11:05.790 ,3,-1,13.8,0.978,0.249,0.124,-1.00,-1.00,3.232E-02,2.560E-03
1979-02-23 00:11:06.220 ,1979-02-23 00:11:29.790 ,2,-1,17.0,1.12,0.622,0.196,-1.00,-1.00,3.532E-02,2.633E-03
1979-02-23 00:11:29.850 ,1979-02-23 00:11:54.220 ,1,-1,14.9,1.81,0.829,0.262,-1.00,-1.00,2.909E-02,4.286E-03
1979-02-23 00:11:54.220 ,1979-02-23 00:12:17.790 ,1,1,18.7,1.14,0.435,0.164,-1.00,-1.00,3.218E-02,2.509E-03
1979-02-23 00:12:18.220 ,1979-02-23 00:12:41.790 ,2,1,16.2,1.06,0.622,0.196,-1.00,-1.00,2.867E-02,2.455E-03
1979-02-23 00:12:42.220 ,1979-02-23 00:13:05.790 ,3,1,13.3,0.960,0.435,0.164,-1.00,-1.00,2.453E-02,2.192E-03
1979-02-23 00:13:06.220 ,1979-02-23 00:13:29.790 ,4,1,9.30,0.802,0.186,0.108,-1.00,-1.00,2.581E-02,2.287E-03
1979-02-23 00:13:30.220 ,1979-02-23 00:13:53.790 ,5,1,12.0,0.912,0.932,0.241,-1.00,-1.00,2.983E-02,2.419E-03
1979-02-23 00:13:54.220 ,1979-02-23 00:14:17.790 ,6,1,15.8,1.08,0.373,0.152,-1.00,-1.00,2.439E-02,2.226E-03
1979-02-23 00:14:18.220 ,1979-02-23 00:14:41.790 ,7,1,17.1,1.09,0.622,0.196,-1.00,-1.00,3.415E-02,2.588E-03
1979-02-23 00:14:42.220 ,1979-02-23 00:15:23.790 ,8,1,17.7,0.840,0.533,0.138,-1.00,-1.00,3.000E-02,1.884E-03
1979-02-23 00:15:23.850 ,1979-02-23 00:15:29.790 ,8,-1,14.8,1.97,0.000E+00,0.000E+00,-1.00,-1.00,2.988E-02,4.608E-03
1979-02-23 00:15:30.220 ,1979-02-23 00:15:53.790 ,7,-1,15.4,1.03,0.559,0.186,-1.00,-1.00,3.101E-02,2.466E-03
1979-02-23 00:15:54.230 ,1979-02-23 00:16:17.790 ,6,-1,15.0,1.02,0.497,0.176,-1.00,-1.00,3.199E-02,2.504E-03
1979-02-23 00:16:18.230 ,1979-02-23 00:16:41.790 ,5,-1,14.3,0.994,0.497,0.176,-1.00,-1.00,3.028E-02,2.480E-03
1979-02-23 00:16:42.230 ,1979-02-23 00:17:05.790 ,4,-1,10.1,0.838,0.435,0.164,-1.00,-1.00,2.572E-02,2.326E-03
1979-02-23 00:17:06.230 ,1979-02-23 00:17:29.790 ,3,-1,14.0,0.986,0.497,0.176,-1.00,-1.00,3.089E-02,2.505E-03
1979-02-23 00:17:30.230 ,1979-02-23 00:17:53.790 ,2,-1,22.1,1.24,0.995,0.249,-1.00,-1.00,3.293E-02,2.583E-03
1979-02-23 00:17:53.850 ,1979-02-23 00:18:18.230 ,1,-1,24.3,2.14,0.663,0.234,-1.00,-1.00,3.585E-02,4.515E-03
1979-02-23 00:18:18.230 ,1979-02-23 00:18:41.790 ,1,1,24.4,1.30,1.12,0.264,-1.00,-1.00,3.583E-02,2.743E-03
1979-02-23 00:18:42.230 ,1979-02-23 00:19:05.790 ,2,1,19.4,1.16,0.497,0.176,-1.00,-1.00,3.415E-02,2.588E-03
1979-02-23 00:19:06.230 ,1979-02-23 00:19:29.790 ,3,1,13.7,0.975,0.559,0.186,-1.00,-1.00,2.276E-02,2.113E-03
1979-02-23 00:19:30.230 ,1979-02-23 00:19:53.790 ,4,1,9.58,0.814,0.622,0.196,-1.00,-1.00,2.445E-02,2.269E-03
1979-02-23 00:19:54.230 ,1979-02-23 00:20:17.790 ,5,1,13.5,0.966,0.497,0.176,-1.00,-1.00,3.218E-02,2.509E-03
1979-02-23 00:20:18.230 ,1979-02-23 00:20:41.790 ,6,1,13.6,0.995,0.559,0.186,-1.00,-1.00,3.008E-02,2.472E-03
1979-02-23 00:20:42.230 ,1979-02-23 00:21:05.790 ,7,1,15.7,1.04,0.870,0.233,-1.00,-1.00,2.787E-02,2.338E-03
1979-02-23 00:21:06.230 ,1979-02-23 00:21:47.790 ,8,1,19.0,0.883,0.568,0.142,-1.00,-1.00,3.059E-02,1.902E-03
1979-02-23 00:21:47.850 ,1979-02-23 00:21:53.790 ,8,-1,22.2,2.42,0.995,0.497,-1.00,-1.00,2.846E-02,4.495E-03
1979-02-23 00:21:54.230 ,1979-02-23 00:22:17.790 ,7,-1,13.6,0.995,0.559,0.186,-1.00,-1.00,2.747E-02,2.318E-03
1979-02-23 00:22:18.230 ,1979-02-23 00:22:41.790 ,6,-1,14.2,0.991,0.684,0.206,-1.00,-1.00,2.663E-02,2.326E-03
1979-02-23 00:22:42.230 ,1979-02-23 00:23:05.790 ,5,-1,13.9,0.980,0.497,0.176,-1.00,-1.00,2.512E-02,2.218E-03
1979-02-23 00:23:06.230 ,1979-02-23 00:23:29.790 ,4,-1,8.74,0.779,0.186,0.108,-1.00,-1.00,2.930E-02,2.481E-03
1979-02-23 00:23:30.230 ,1979-02-23 00:23:53.790 ,3,-1,15.3,1.03,0.932,0.241,-1.00,-1.00,3.120E-02,2.472E-03
1979-02-23 00:23:54.230 ,1979-02-23 00:24:17.790 ,2,-1,23.0,1.26,0.373,0.152,-1.00,-1.00,3.846E-02,2.747E-03
1979-02-23 00:24:17.850 ,1979-02-23 00:24:42.230 ,1,-1,28.4,2.31,0.580,0.219,-1.00,-1.00,3.927E-02,4.724E-03
1979-02-23 00:24:42.230 ,1979-02-23 00:25:05.790 ,1,1,28.5,1.40,0.622,0.196,-1.00,-1.00,4.082E-02,2.825E-03
1979-02-23 00:25:06.230 ,1979-02-23 00:25:29.790 ,2,1,22.2,1.24,0.622,0.196,-1.00,-1.00,3.191E-02,2.543E-03
1979-02-23 00:25:30.230 ,1979-02-23 00:25:53.790 ,3,1,15.5,1.04,0.311,0.139,-1.00,-1.00,2.703E-02,2.340E-03
1979-02-23 00:25:54.230 ,1979-02-23 00:26:17.790 ,4,1,11.0,0.874,0.684,0.206,-1.00,-1.00,2.492E-02,2.208E-03
1979-02-23 00:26:18.230 ,1979-02-23 00:26:41.790 ,5,1,12.9,0.946,0.622,0.196,-1.00,-1.00,3.073E-02,2.641E-03
1979-02-23 00:26:42.230 ,1979-02-23 00:27:05.790 ,6,1,14.8,1.01,0.559,0.186,-1.00,-1.00,2.703E-02,2.340E-03
1979-02-23 00:27:06.230 ,1979-02-23 00:27:29.790 ,7,1,14.5,1.00,0.435,0.164,-1.00,-1.00,3.267E-02,2.624E-03
1979-02-23 00:27:30.230 ,1979-02-23 00:28:11.790 ,8,1,20.5,0.903,0.746,0.163,-1.00,-1.00,2.660E-02,1.812E-03
1979-02-23 00:28:11.850 ,1979-02-23 00:28:17.790 ,8,-1,19.5,2.27,0.249,0.249,-1.00,-1.00,4.126E-02,5.415E-03
1979-02-23 00:28:18.230 ,1979-02-23 00:28:41.790 ,7,-1,15.2,1.03,0.373,0.152,-1.00,-1.00,3.130E-02,2.519E-03
1979-02-23 00:28:42.230 ,1979-02-23 00:29:05.790 ,6,-1,15.0,1.02,0.497,0.176,-1.00,-1.00,3.042E-02,2.443E-03
1979-02-23 00:29:06.230 ,1979-02-23 00:29:29.790 ,5,-1,14.0,1.01,0.684,0.206,-1.00,-1.00,3.081E-02,2.455E-03
1979-02-23 00:29:30.230 ,1979-02-23 00:29:53.790 ,4,-1,9.30,0.802,0.249,0.124,-1.00,-1.00,2.846E-02,2.361E-03
1979-02-23 00:29:54.230 ,1979-02-23 00:30:17.790 ,3,-1,15.0,1.02,0.559,0.186,-1.00,-1.00,3.140E-02,2.478E-03
1979-02-23 00:30:18.230 ,1979-02-23 00:30:41.790 ,2,-1,18.6,1.13,0.684,0.206,-1.00,-1.00,3.211E-02,2.554E-03
1979-02-23 00:30:41.850 ,1979-02-23 00:31:06.230 ,1,-1,22.0,2.20,0.746,0.249,-1.00,-1.00,2.902E-02,4.063E-03
1979-02-23 00:31:06.230 ,1979-02-23 00:31:29.790 ,1,1,21.4,1.22,0.435,0.164,-1.00,-1.00,2.977E-02,2.549E-03
1979-02-23 00:31:30.230 ,1979-02-23 00:31:53.790 ,2,1,18.3,1.13,0.622,0.196,-1.00,-1.00,3.199E-02,2.504E-03
1979-02-23 00:31:54.230 ,1979-02-23 00:32:17.790 ,3,1,14.1,1.01,0.684,0.206,-1.00,-1.00,2.492E-02,2.208E-03
1979-02-23 00:32:18.230 ,1979-02-23 00:32:41.790 ,4,1,9.79,0.823,0.435,0.164,-1.00,-1.00,2.394E-02,2.166E-03
1979-02-23 00:32:42.230 ,1979-02-23 00:33:05.790 ,5,1,13.7,0.972,0.435,0.164,-1.00,-1.00,3.110E-02,2.512E-03
1979-02-23 00:33:06.230 ,1979-02-23 00:33:29.790 ,6,1,14.2,0.991,0.559,0.186,-1.00,-1.00,2.951E-02,2.490E-03
1979-02-23 00:33:30.230 ,1979-02-23 00:33:53.790 ,7,1,17.1,1.09,0.684,0.206,-1.00,-1.00,2.767E-02,2.326E-03
1979-02-23 00:33:54.230 ,1979-02-23 00:34:35.790 ,8,1,20.4,0.903,0.462,0.128,-1.00,-1.00,2.644E-02,1.768E-03
1979-02-23 00:34:35.850 ,1979-02-23 00:34:41.790 ,8,-1,24.8,2.56,0.497,0.352,-1.00,-1.00,3.272E-02,4.822E-03
1979-02-23 00:34:42.230 ,1979-02-23 00:35:05.790 ,7,-1,16.4,1.07,0.435,0.164,-1.00,-1.00,3.375E-02,2.568E-03
1979-02-23 00:35:06.230 ,1979-02-23 00:35:29.790 ,6,-1,15.1,1.02,0.249,0.124,-1.00,-1.00,2.649E-02,2.277E-03
1979-02-23 00:35:30.230 ,1979-02-23 00:35:53.790 ,5,-1,11.2,0.880,0.311,0.139,-1.00,-1.00,2.888E-02,2.464E-03
1979-02-23 00:35:54.230 ,1979-02-23 00:36:17.790 ,4,-1,10.5,0.851,0.497,0.176,-1.00,-1.00,2.571E-02,2.245E-03
1979-02-23 00:36:18.230 ,1979-02-23 00:36:41.790 ,3,-1,17.7,1.11,0.311,0.139,-1.00,-1.00,2.747E-02,2.318E-03
1979-02-23 00:36:42.230 ,1979-02-23 00:37:05.790 ,2,-1,20.8,1.20,0.932,0.241,-1.00,-1.00,2.888E-02,2.464E-03
1979-02-23 00:37:05.850 ,1979-02-23 00:37:30.230 ,1,-1,19.1,2.05,0.414,0.185,-1.00,-1.00,3.585E-02,4.515E-03
1979-02-23 00:37:30.230 ,1979-02-23 00:37:53.790 ,1,1,21.0,1.21,0.684,0.206,-1.00,-1.00,3.493E-02,2.614E-03
1979-02-23 00:37:54.230 ,1979-02-23 00:38:17.790 ,2,1,21.0,1.24,0.373,0.152,-1.00,-1.00,3.572E-02,2.645E-03
1979-02-23 00:38:18.230 ,1979-02-23 00:38:41.790 ,3,1,14.9,1.01,0.373,0.152,-1.00,-1.00,3.008E-02,2.472E-03
1979-02-23 00:38:42.230 ,1979-02-23 00:39:05.790 ,4,1,10.1,0.835,0.559,0.186,-1.00,-1.00,2.255E-02,2.178E-03
1979-02-23 00:39:06.230 ,1979-02-23 00:39:29.790 ,5,1,11.1,0.899,0.684,0.206,-1.00,-1.00,3.458E-02,2.751E-03
1979-02-23 00:39:30.230 ,1979-02-23 00:39:53.790 ,6,1,15.4,1.03,0.559,0.186,-1.00,-1.00,2.670E-02,2.416E-03
1979-02-23 00:39:54.230 ,1979-02-23 00:40:17.790 ,7,1,16.7,1.10,0.622,0.196,-1.00,-1.00,2.826E-02,2.353E-03
1979-02-23 00:40:18.230 ,1979-02-23 00:40:59.790 ,8,1,19.8,0.887,0.675,0.155,-1.00,-1.00,3.245E-02,1.977E-03
1979-02-23 00:40:59.850 ,1979-02-23 00:41:05.790 ,8,-1,19.3,2.25,1.49,0.609,-1.00,-1.00,2.774E-02,4.439E-03
1979-02-23 00:41:06.230 ,1979-02-23 00:41:29.790 ,7,-1,15.1,1.02,0.746,0.215,-1.00,-1.00,3.277E-02,2.535E-03
1979-02-23 00:41:30.230 ,1979-02-23 00:41:53.790 ,6,-1,13.9,0.980,0.684,0.206,-1.00,-1.00,3.061E-02,2.449E-03
1979-02-23 00:41:54.230 ,1979-02-23 00:42:17.790 ,5,-1,15.2,1.03,0.435,0.164,-1.00,-1.00,3.042E-02,2.443E-03
1979-02-23 00:42:18.230 ,1979-02-23 00:42:41.790 ,4,-1,12.3,0.923,0.311,0.139,-1.00,-1.00,2.572E-02,2.326E-03
1979-02-23 00:42:42.230 ,1979-02-23 00:43:05.790 ,3,-1,14.6,1.03,0.808,0.224,-1.00,-1.00,3.354E-02,2.610E-03
1979-02-23 00:43:06.230 ,1979-02-23 00:43:29.790 ,2,-1,20.7,1.23,0.124,8.790E-02,-1.00,-1.00,3.160E-02,2.488E-03
1979-02-23 00:43:29.850 ,1979-02-23 00:43:54.230 ,1,-1,21.7,2.02,1.08,0.299,-1.00,-1.00,3.098E-02,4.425E-03
1979-02-23 00:43:54.230 ,1979-02-23 00:44:17.790 ,1,1,21.4,1.22,0.746,0.215,-1.00,-1.00,3.351E-02,2.655E-03
1979-02-23 00:44:18.230 ,1979-02-23 00:44:41.790 ,2,1,23.0,1.26,0.559,0.186,-1.00,-1.00,3.191E-02,2.543E-03
1979-02-23 00:44:42.230 ,1979-02-23 00:45:05.790 ,3,1,15.2,1.03,0.497,0.176,-1.00,-1.00,2.550E-02,2.315E-03
1979-02-23 00:45:06.230 ,1979-02-23 00:45:29.790 ,4,1,8.81,0.781,0.435,0.164,-1.00,-1.00,2.453E-02,2.192E-03
1979-02-23 00:45:30.230 ,1979-02-23 00:45:53.790 ,5,1,11.9,0.908,0.684,0.206,-1.00,-1.00,3.028E-02,2.480E-03
1979-02-23 00:45:54.230 ,1979-02-23 00:46:17.790 ,6,1,12.7,0.962,0.622,0.196,-1.00,-1.00,2.947E-02,2.445E-03
1979-02-23 00:46:18.230 ,1979-02-23 00:46:41.790 ,7,1,14.6,1.00,0.559,0.186,-1.00,-1.00,2.886E-02,2.422E-03
1979-02-23 00:46:42.230 ,1979-02-23 00:47:23.790 ,8,1,15.5,0.785,0.746,0.163,-1.00,-1.00,2.834E-02,1.811E-03
1979-02-23 00:47:23.850 ,1979-02-23 00:47:29.790 ,8,-1,17.4,2.14,0.497,0.352,-1.00,-1.00,3.272E-02,4.822E-03
1979-02-23 00:47:30.230 ,1979-02-23 00:47:53.790 ,7,-1,14.2,0.991,0.808,0.224,-1.00,-1.00,2.825E-02,2.393E-03
1979-02-23 00:47:54.230 ,1979-02-23 00:48:17.790 ,6,-1,14.4,0.999,0.870,0.233,-1.00,-1.00,2.487E-02,2.289E-03
1979-02-23 00:48:18.230 ,1979-02-23 00:48:41.790 ,5,-1,13.5,0.966,0.311,0.139,-1.00,-1.00,2.744E-02,2.358E-03
1979-02-23 00:48:42.230 ,1979-02-23 00:49:05.790 ,4,-1,9.23,0.799,0.622,0.196,-1.00,-1.00,2.195E-02,2.109E-03
1979-02-23 00:49:06.230 ,1979-02-23 00:49:29.790 ,3,-1,13.3,0.960,0.559,0.186,-1.00,-1.00,2.571E-02,2.245E-03
1979-02-23 00:49:30.230 ,1979-02-23 00:49:53.790 ,2,-1,16.6,1.10,0.622,0.196,-1.00,-1.00,3.081E-02,2.455E-03
1979-02-23 00:49:53.850 ,1979-02-23 00:50:18.230 ,1,-1,21.7,2.02,0.746,0.249,-1.00,-1.00,3.301E-02,4.332E-03
1979-02-23 00:50:18.230 ,1979-02-23 00:50:41.790 ,1,1,19.2,1.15,0.559,0.186,-1.00,-1.00,3.415E-02,2.630E-03
1979-02-23 00:50:42.230 ,1979-02-23 00:51:05.790 ,2,1,15.2,1.05,0.497,0.176,-1.00,-1.00,2.867E-02,2.455E-03
1979-02-23 00:51:06.230 ,1979-02-23 00:51:29.790 ,3,1,11.7,0.898,0.435,0.164,-1.00,-1.00,3.199E-02,2.504E-03
1979-02-23 00:51:30.230 ,1979-02-23 00:51:53.790 ,4,1,9.02,0.791,0.622,0.196,-1.00,-1.00,2.154E-02,2.091E-03
1979-02-23 00:51:54.230 ,1979-02-23 00:52:17.790 ,5,1,15.9,1.05,0.373,0.152,-1.00,-1.00,3.022E-02,2.432E-03
1979-02-23 00:52:18.230 ,1979-02-23 00:52:41.790 ,6,1,14.2,1.02,0.497,0.176,-1.00,-1.00,2.904E-02,2.387E-03
1979-02-23 00:52:42.230 ,1979-02-23 00:53:05.790 ,7,1,13.3,0.959,0.124,8.790E-02,-1.00,-1.00,2.663E-02,2.326E-03
1979-02-23 00:53:06.230 ,1979-02-23 00:53:47.790 ,8,1,14.9,0.771,0.320,0.107,-1.00,-1.00,2.497E-02,1.701E-03
1979-02-23 00:53:47.850 ,1979-02-23 00:53:53.790 ,8,-1,12.7,1.83,0.249,0.249,-1.00,-1.00,2.917E-02,4.553E-03
1979-02-23 00:53:54.230 ,1979-02-23 00:54:17.790 ,7,-1,14.9,1.01,0.373,0.152,-1.00,-1.00,2.904E-02,2.387E-03
1979-02-23 00:54:18.230 ,1979-02-23 00:54:41.790 ,6,-1,14.0,0.986,0.622,0.196,-1.00,-1.00,2.924E-02,2.394E-03
1979-02-23 00:54:42.230 ,1979-02-23 00:55:05.790 ,5,-1,13.0,0.949,0.497,0.176,-1.00,-1.00,2.335E-02,2.138E-03
1979-02-23 00:55:06.230 ,1979-02-23 00:55:29.790 ,4,-1,9.72,0.820,0.746,0.215,-1.00,-1.00,2.846E-02,2.361E-03
1979-02-23 00:55:30.230 ,1979-02-23 00:55:53.790 ,3,-1,12.1,0.915,0.435,0.164,-1.00,-1.00,2.787E-02,2.338E-03
1979-02-23 00:55:54.230 ,1979-02-23 00:56:17.790 ,2,-1,27.4,1.38,0.870,0.233,-1.00,-1.00,3.557E-02,2.684E-03
1979-02-23 00:56:17.850 ,1979-02-23 00:56:42.230 ,1,-1,28.1,2.30,0.663,0.234,-1.00,-1.00,4.325E-02,4.960E-03
1979-02-23 00:56:42.230 ,1979-02-23 00:57:05.790 ,1,1,31.3,1.47,1.24,0.278,-1.00,-1.00,3.740E-02,2.752E-03
1979-02-23 00:57:06.230 ,1979-02-23 00:57:29.790 ,2,1,23.4,1.27,0.435,0.164,-1.00,-1.00,3.598E-02,2.704E-03
1979-02-23 00:57:30.230 ,1979-02-23 00:57:53.790 ,3,1,14.6,1.01,0.497,0.176,-1.00,-1.00,2.924E-02,2.394E-03
1979-02-23 00:57:54.230 ,1979-02-23 00:58:11.790 ,4,1,8.57,0.897,0.746,0.249,-1.00,-1.00,2.304E-02,2.498E-03
1979-02-23 00:58:59.850 ,1979-02-23 00:59:23.850 ,9,0,14.8,0.987,0.497,0.157,1.064E-02,1.064E-02,2.997E-02,2.384E-03
1979-02-23 00:59:23.850 ,1979-02-23 00:59:29.790 ,7,1,15.3,2.01,0.000E+00,0.000E+00,-1.00,-1.00,3.059E-02,4.660E-03
1979-02-23 00:59:30.230 ,1979-02-23 00:00:11.790 ,8,1,16.2,0.804,0.568,0.142,-1.00,-1.00,2.834E-02,1.793E-03
1979-02-23 01:00:11.850 ,1979-02-23 01:00:17.790 ,8,-1,14.5,1.95,0.497,0.352,-1.00,-1.00,2.134E-02,3.895E-03
1979-02-23 01:00:18.230 ,1979-02-23 01:00:41.790 ,7,-1,15.6,1.04,0.559,0.186,-1.00,-1.00,2.581E-02,2.287E-03
1979-02-23 01:00:42.230 ,1979-02-23 01:01:05.790 ,6,-1,13.9,0.980,0.373,0.152,-1.00,-1.00,2.378E-02,2.196E-03
1979-02-23 01:01:06.230 ,1979-02-23 01:01:29.790 ,5,-1,12.4,0.928,0.684,0.206,-1.00,-1.00,2.846E-02,2.361E-03
1979-02-23 01:01:30.230 ,1979-02-23 01:01:53.790 ,4,-1,11.0,0.874,0.559,0.186,-1.00,-1.00,2.178E-02,2.066E-03
1979-02-23 01:01:54.230 ,1979-02-23 01:02:17.790 ,3,-1,11.0,0.872,0.311,0.139,-1.00,-1.00,2.614E-02,2.344E-03
1979-02-23 01:02:18.230 ,1979-02-23 01:02:41.790 ,2,-1,13.3,0.960,6.216E-02,6.216E-02,-1.00,-1.00,2.297E-02,2.201E-03
1979-02-23 01:02:41.850 ,1979-02-23 01:03:06.230 ,1,-1,15.6,1.85,0.414,0.185,-1.00,-1.00,2.846E-02,4.024E-03
1979-02-23 01:03:06.230 ,1979-02-23 01:03:29.790 ,1,1,12.8,0.967,0.808,0.224,-1.00,-1.00,2.276E-02,2.148E-03
1979-02-23 01:03:30.230 ,1979-02-23 01:03:53.790 ,2,1,10.8,0.887,0.746,0.215,-1.00,-1.00,2.826E-02,2.353E-03
1979-02-23 01:03:54.230 ,1979-02-23 01:04:17.790 ,3,1,11.6,0.923,0.497,0.176,-1.00,-1.00,2.066E-02,2.085E-03
1979-02-23 01:04:18.230 ,1979-02-23 01:04:41.790 ,4,1,8.40,0.762,0.622,0.196,-1.00,-1.00,2.058E-02,2.122E-03
1979-02-23 01:04:42.230 ,1979-02-23 01:05:05.790 ,5,1,12.9,0.971,0.497,0.176,-1.00,-1.00,3.035E-02,2.528E-03
1979-02-23 01:05:06.230 ,1979-02-23 01:05:29.790 ,6,1,13.6,0.971,0.435,0.164,-1.00,-1.00,2.012E-02,2.022E-03
1979-02-23 01:05:30.230 ,1979-02-23 01:05:53.790 ,7,1,13.2,0.956,0.435,0.164,-1.00,-1.00,2.459E-02,2.233E-03
1979-02-23 01:05:54.230 ,1979-02-23 01:06:35.790 ,8,1,17.1,0.825,0.497,0.133,-1.00,-1.00,2.846E-02,1.814E-03
1979-02-23 01:06:35.850 ,1979-02-23 01:06:41.790 ,8,-1,16.4,2.07,0.746,0.431,-1.00,-1.00,2.846E-02,4.495E-03
1979-02-23 01:06:42.230 ,1979-02-23 01:07:05.790 ,7,-1,17.8,1.11,0.373,0.152,-1.00,-1.00,2.492E-02,2.208E-03
1979-02-23 01:07:06.230 ,1979-02-23 01:07:29.790 ,6,-1,13.7,0.975,0.559,0.186,-1.00,-1.00,2.532E-02,2.227E-03
1979-02-23 01:07:30.230 ,1979-02-23 01:07:53.790 ,5,-1,12.5,0.931,0.249,0.124,-1.00,-1.00,2.656E-02,2.365E-03
1979-02-23 01:07:54.230 ,1979-02-23 01:08:17.790 ,4,-1,11.0,0.874,0.249,0.124,-1.00,-1.00,2.178E-02,2.066E-03
1979-02-23 01:08:18.230 ,1979-02-23 01:08:41.790 ,3,-1,13.6,0.971,0.186,0.108,-1.00,-1.00,2.806E-02,2.346E-03
1979-02-23 01:08:42.230 ,1979-02-23 01:09:05.790 ,2,-1,12.4,0.928,0.746,0.215,-1.00,-1.00,2.382E-02,2.240E-03
1979-02-23 01:09:05.850 ,1979-02-23 01:09:30.230 ,1,-1,12.3,1.64,0.332,0.166,-1.00,-1.00,2.390E-02,3.686E-03
1979-02-23 01:09:30.230 ,1979-02-23 01:09:53.790 ,1,1,14.2,0.991,0.311,0.139,-1.00,-1.00,3.008E-02,2.472E-03
1979-02-23 01:09:54.230 ,1979-02-23 01:10:17.790 ,2,1,12.7,0.939,0.684,0.206,-1.00,-1.00,2.590E-02,2.254E-03
1979-02-23 01:10:18.230 ,1979-02-23 01:10:41.790 ,3,1,11.7,0.898,0.559,0.186,-1.00,-1.00,2.414E-02,2.176E-03
1979-02-23 01:10:42.230 ,1979-02-23 01:11:05.790 ,4,1,9.02,0.791,0.124,8.790E-02,-1.00,-1.00,2.642E-02,2.316E-03
1979-02-23 01:11:06.230 ,1979-02-23 01:11:29.790 ,5,1,11.1,0.903,0.373,0.152,-1.00,-1.00,2.433E-02,2.182E-03
1979-02-23 01:11:30.230 ,1979-02-23 01:11:53.790 ,6,1,11.6,0.921,0.870,0.233,-1.00,-1.00,2.944E-02,2.401E-03
1979-02-23 01:11:54.230 ,1979-02-23 01:12:17.790 ,7,1,12.8,0.943,0.435,0.164,-1.00,-1.00,3.028E-02,2.480E-03
1979-02-23 01:12:18.230 ,1979-02-23 01:12:59.790 ,8,1,13.9,0.745,0.675,0.155,-1.00,-1.00,2.636E-02,1.747E-03
1979-02-23 01:12:59.850 ,1979-02-23 01:13:05.790 ,8,-1,11.9,1.77,0.497,0.352,-1.00,-1.00,3.089E-02,5.011E-03
1979-02-23 01:13:06.230 ,1979-02-23 01:13:29.790 ,7,-1,16.0,1.05,0.684,0.206,-1.00,-1.00,2.361E-02,2.228E-03
1979-02-23 01:13:30.230 ,1979-02-23 01:13:53.790 ,6,-1,11.6,0.921,0.497,0.176,-1.00,-1.00,2.602E-02,2.297E-03
1979-02-23 01:13:54.230 ,1979-02-23 01:14:17.790 ,5,-1,11.2,0.882,0.373,0.152,-1.00,-1.00,2.256E-02,2.140E-03
1979-02-23 01:14:18.230 ,1979-02-23 01:14:41.790 ,4,-1,7.47,0.739,0.373,0.152,-1.00,-1.00,2.382E-02,2.240E-03
1979-02-23 01:14:42.230 ,1979-02-23 01:15:05.790 ,3,-1,11.4,0.914,0.373,0.152,-1.00,-1.00,2.886E-02,2.422E-03
1979-02-23 01:15:06.230 ,1979-02-23 01:15:29.790 ,2,-1,12.9,0.946,0.249,0.124,-1.00,-1.00,2.744E-02,2.358E-03
1979-02-23 01:15:29.850 ,1979-02-23 01:15:54.230 ,1,-1,12.1,1.51,0.746,0.249,-1.00,-1.00,2.789E-02,3.982E-03
1979-02-23 01:15:54.230 ,1979-02-23 01:16:17.790 ,1,1,14.2,0.991,0.435,0.164,-1.00,-1.00,2.386E-02,2.285E-03
1979-02-23 01:16:18.230 ,1979-02-23 01:16:41.790 ,2,1,11.2,0.880,0.559,0.186,-1.00,-1.00,2.927E-02,2.437E-03
1979-02-23 01:16:42.230 ,1979-02-23 01:17:05.790 ,3,1,13.3,0.959,0.559,0.186,-1.00,-1.00,2.551E-02,2.236E-03
1979-02-23 01:17:06.230 ,1979-02-23 01:17:29.790 ,4,1,7.55,0.743,0.622,0.196,-1.00,-1.00,2.355E-02,2.149E-03
1979-02-23 01:17:30.230 ,1979-02-23 01:17:53.790 ,5,1,12.3,0.948,0.622,0.196,-1.00,-1.00,2.787E-02,2.338E-03
1979-02-23 01:17:54.230 ,1979-02-23 01:18:17.790 ,6,1,12.6,0.932,0.559,0.186,-1.00,-1.00,2.378E-02,2.196E-03
1979-02-23 01:18:18.230 ,1979-02-23 01:18:41.790 ,7,1,13.3,0.987,0.373,0.152,-1.00,-1.00,2.026E-02,2.146E-03
1979-02-23 01:18:42.230 ,1979-02-23 01:19:23.790 ,8,1,13.9,0.745,0.462,0.128,-1.00,-1.00,2.361E-02,1.690E-03
1979-02-23 01:19:23.850 ,1979-02-23 01:19:29.790 ,8,-1,8.44,1.49,0.995,0.497,-1.00,-1.00,1.352E-02,3.100E-03
1979-02-23 01:19:30.230 ,1979-02-23 01:19:53.790 ,7,-1,11.9,0.907,0.622,0.196,-1.00,-1.00,2.297E-02,2.201E-03
1979-02-23 01:19:54.230 ,1979-02-23 01:20:17.790 ,6,-1,12.7,0.939,0.186,0.108,-1.00,-1.00,2.080E-02,2.018E-03
1979-02-23 01:20:18.230 ,1979-02-23 01:20:41.790 ,5,-1,12.2,0.920,0.249,0.124,-1.00,-1.00,2.433E-02,2.182E-03
1979-02-23 01:20:42.230 ,1979-02-23 01:21:05.790 ,4,-1,8.40,0.762,0.311,0.139,-1.00,-1.00,2.520E-02,2.260E-03
1979-02-23 01:21:06.230 ,1979-02-23 01:21:29.790 ,3,-1,12.3,0.923,0.622,0.196,-1.00,-1.00,2.041E-02,1.999E-03
1979-02-23 01:21:30.230 ,1979-02-23 01:21:53.790 ,2,-1,11.9,0.908,0.373,0.152,-1.00,-1.00,2.683E-02,2.335E-03
1979-02-23 01:21:53.850 ,1979-02-23 01:22:18.230 ,1,-1,17.0,1.79,0.249,0.144,-1.00,-1.00,2.466E-02,3.946E-03
1979-02-23 01:22:18.230 ,1979-02-23 01:22:41.790 ,1,1,12.8,0.943,0.622,0.196,-1.00,-1.00,2.846E-02,2.361E-03
1979-02-23 01:22:42.230 ,1979-02-23 01:23:05.790 ,2,1,9.72,0.820,0.124,8.790E-02,-1.00,-1.00,2.424E-02,2.257E-03
1979-02-23 01:23:06.230 ,1979-02-23 01:23:29.790 ,3,1,11.9,0.907,0.311,0.139,-1.00,-1.00,2.340E-02,2.219E-03
1979-02-23 01:23:30.230 ,1979-02-23 01:23:53.790 ,4,1,7.84,0.738,0.124,8.790E-02,-1.00,-1.00,1.939E-02,2.021E-03
1979-02-23 01:23:54.230 ,1979-02-23 01:24:17.790 ,5,1,12.3,0.923,0.435,0.164,-1.00,-1.00,1.981E-02,2.043E-03
1979-02-23 01:24:18.230 ,1979-02-23 01:24:41.790 ,6,1,11.9,0.908,0.746,0.215,-1.00,-1.00,2.541E-02,2.271E-03
1979-02-23 01:24:42.230 ,1979-02-23 01:25:05.790 ,7,1,14.2,0.991,0.373,0.152,-1.00,-1.00,2.154E-02,2.091E-03
1979-02-23 01:25:06.230 ,1979-02-23 01:25:47.790 ,8,1,12.4,0.703,0.533,0.138,-1.00,-1.00,2.333E-02,1.626E-03
1979-02-23 01:25:47.850 ,1979-02-23 01:25:53.790 ,8,-1,12.7,1.83,0.000E+00,0.000E+00,-1.00,-1.00,2.490E-02,4.205E-03
1979-02-23 01:25:54.230 ,1979-02-23 01:26:17.790 ,7,-1,11.8,0.929,0.684,0.206,-1.00,-1.00,2.021E-02,1.990E-03
1979-02-23 01:26:18.230 ,1979-02-23 01:26:41.790 ,6,-1,12.2,0.942,6.216E-02,6.216E-02,-1.00,-1.00,2.414E-02,2.176E-03